This is the latest recevied weather packets stored in our database for station/object KK7MLS-13. If no packets are shown the sender has not sent any weather packets the latest 10 day(s).
| Time | Temp. | Humidity | Pressure | Rain* | Wind** | Luminosity | Snow |
|---|---|---|---|---|---|---|---|
| 1788447791 | 12.22° C | 95% | 1010.5 hPa | 0 mm | - | 21 W/m² | - |
| 1788447487 | 12.22° C | 95% | 1010.6 hPa | 1.78 mm | - | 18 W/m² | - |
| 1788447182 | 12.22° C | 95% | 1010.5 hPa | 1.78 mm | - | 16 W/m² | - |
| 1788446881 | 12.22° C | 95% | 1010.7 hPa | 0 mm | - | 17 W/m² | - |
| 1788446577 | 12.22° C | 95% | 1010.4 hPa | 0 mm | - | 17 W/m² | - |
| 1788446272 | 12.22° C | 95% | 1010.4 hPa | 1.27 mm | - | 12 W/m² | - |
| 1788445968 | 12.22° C | 95% | 1010.3 hPa | 1.27 mm | - | 9 W/m² | - |
| 1788445663 | 12.22° C | 95% | 1010.5 hPa | 1.78 mm | - | 7 W/m² | - |
| 1788445359 | 12.22° C | 95% | 1010.3 hPa | 1.78 mm | - | 7 W/m² | - |
| 1788445055 | 12.22° C | 95% | 1010.4 hPa | 0 mm | - | 6 W/m² | - |
| 1788444750 | 12.22° C | 95% | 1010.2 hPa | 0 mm | - | 6 W/m² | - |
| 1788444446 | 12.22° C | 95% | 1010.2 hPa | 1.78 mm | - | 5 W/m² | - |
| 1788444140 | 12.22° C | 95% | 1010.1 hPa | 1.78 mm | - | 4 W/m² | - |
| 1788443836 | 12.22° C | 95% | 1010.3 hPa | 0 mm | - | 3 W/m² | - |
| 1788443531 | 12.22° C | 95% | 1010 hPa | 1.27 mm | - | 3 W/m² | - |
| 1788443224 | 12.22° C | 94% | 1010 hPa | 1.27 mm | - | 1 W/m² | - |
| 1788442921 | 12.22° C | 94% | 1009.9 hPa | 0 mm | - | 1 W/m² | - |
| 1788442618 | 12.22° C | 94% | 1010 hPa | 0 mm | - | 1 W/m² | - |
| 1788442314 | 12.22° C | 94% | 1010 hPa | 0 mm | - | 0 W/m² | - |
| 1788442014 | 12.22° C | 94% | 1010 hPa | 1.78 mm | - | 0 W/m² | - |
| 1788441714 | 12.22° C | 94% | 1010.1 hPa | 1.78 mm | - | 0 W/m² | - |
| 1788441409 | 12.22° C | 93% | 1009.9 hPa | 4.32 mm | - | 0 W/m² | - |
| 1788441108 | 12.22° C | 93% | 1009.9 hPa | 3.05 mm | - | 0 W/m² | - |
| 1788440804 | 12.22° C | 93% | 1010.1 hPa | 0 mm | - | 0 W/m² | - |
| 1788440504 | 12.22° C | 93% | 1010.1 hPa | 0 mm | - | 0 W/m² | - |
* Rain latest hour (hover to see other rain measurements)
** Current wind speed in m/s (hover to see current wind gust speed)